Location: Allos
(44.2333°N, 6.6333°E)
Time: 10:11:33
(UTC+00:00)

Cosmos 1515 Rocket - Pass Details

Date: 01 December 2020
Orbit: 605 x 631 km, 82.5° (Epoch: 25 January)

Event Time Altitude Azimuth Distance (km) Brightness Sun altitude
Rises 17:13:09 0° 179° (S) 2,867 7.2 -13.5°
Reaches altitude 10° 17:15:22 10° 176° (S) 1,971 6.3 -13.8°
Maximum altitude 17:19:41 65° 96° (E) 684 3.5 -14.6°
Drops below altitude 10° 17:24:05 10° 14° (NNE) 2,003 5.9 -15.3°
Enters shadow 17:25:11 - 13° (NNE) 2,446 6.3 -15.5°
